sat.trackr.live / text

‹ back to catalog

STARLINK-6054

NORAD 56465 · 2023-064T

PAYLOAD ACTIVE UNKNOWN

§ Identity

Operator
Country
US
Launch date
2023-05-10
Launch site
AFWTR
Launch vehicle
Mass (kg)
RCS (m²)

Purposes: comms

External: N2YO · Heavens-Above · Gunter

§ Orbital elements

Epoch: 2026-09-20T13:10:01.768512Z

Period
96.11 min
Inclination
69.9999°
Eccentricity
0.0003582
Mean motion
14.98331318 rev/d
Perigee alt
569.6 km
Apogee alt
574.5 km
Semi-major
6,950.2 km
B*
9.9003e-6
RAAN
332.9909°
Arg perigee
268.5522°
Mean anomaly
91.5227°
Rev number
18,542

§ Raw data

STARLINK-60541 56465U 23064T   26263.54863158  .00000025  00000+0  99003-5 0  99922 56465  69.9999 332.9909 0003582 268.5522  91.5227 14.98331318185429

JSON: /api/v1/satellites/56465 · /tle

For live sub-satellite position, see the globe view (requires WebGL).

§ Visibility from observer

Set your observer location to see the next 7 days of passes ≥ 10°. The values pass through the URL so the page stays shareable.

No JS? Fill the form by hand. The geolocation button needs JavaScript.